Private Wetterstation Sandau
Wetterdaten: Freitag, 09.03.2012
Datum Zeit Temp. A. Feuchte A. Luftdruck Regen Wind Richtung Richtung Taupunkt Windchill
09.03.2012 00:02 2,9 C 79 % 1033,2 hPa 0,0 l/m 2,9 km/h (1 Bft) W-NW 292 -0,4 C 2,9 C
09.03.2012 00:07 2,8 C 80 % 1033,4 hPa 0,0 l/m 4,0 km/h (1 Bft) W-NW 292 -0,3 C 2,8 C
09.03.2012 00:12 2,8 C 80 % 1033,2 hPa 0,0 l/m 4,7 km/h (1 Bft) W-NW 292 -0,3 C 1,7 C
09.03.2012 00:17 2,7 C 80 % 1033,4 hPa 0,0 l/m 2,5 km/h (1 Bft) W 270 -0,4 C 2,7 C
09.03.2012 00:22 2,7 C 80 % 1033,4 hPa 0,0 l/m 3,6 km/h (1 Bft) W-NW 292 -0,4 C 2,7 C
09.03.2012 00:27 2,6 C 81 % 1033,7 hPa 0,0 l/m 3,6 km/h (1 Bft) W 270 -0,3 C 2,6 C
09.03.2012 00:32 2,6 C 81 % 1033,5 hPa 0,0 l/m 2,5 km/h (1 Bft) W-NW 292 -0,3 C 2,6 C
09.03.2012 00:37 2,6 C 81 % 1033,6 hPa 0,0 l/m 4,3 km/h (1 Bft) W-NW 292 -0,3 C 2,6 C
09.03.2012 00:42 2,5 C 81 % 1033,6 hPa 0,0 l/m 2,5 km/h (1 Bft) W 270 -0,4 C 2,5 C
09.03.2012 00:47 2,5 C 81 % 1033,7 hPa 0,0 l/m 0,0 km/h (0 Bft) W-NW 292 -0,4 C 2,5 C
09.03.2012 00:52 2,5 C 81 % 1033,9 hPa 0,0 l/m 3,6 km/h (1 Bft) W 270 -0,4 C 2,5 C
09.03.2012 00:57 2,4 C 81 % 1033,7 hPa 0,0 l/m 1,8 km/h (1 Bft) W 270 -0,5 C 2,4 C
09.03.2012 01:02 2,4 C 81 % 1033,9 hPa 0,0 l/m 2,5 km/h (1 Bft) W-NW 292 -0,5 C 2,4 C
09.03.2012 01:07 2,4 C 81 % 1034,0 hPa 0,0 l/m 3,2 km/h (1 Bft) W 270 -0,5 C 2,4 C
09.03.2012 01:12 2,4 C 81 % 1034,0 hPa 0,0 l/m 5,8 km/h (2 Bft) NW 315 -0,5 C 0,8 C
09.03.2012 01:17 2,3 C 81 % 1034,1 hPa 0,0 l/m 0,0 km/h (0 Bft) W 270 -0,6 C 2,3 C
09.03.2012 01:22 2,3 C 82 % 1034,2 hPa 0,0 l/m 2,5 km/h (1 Bft) W-NW 292 -0,4 C 2,3 C
09.03.2012 01:27 2,3 C 82 % 1034,1 hPa 0,0 l/m 4,0 km/h (1 Bft) W 270 -0,4 C 2,3 C
09.03.2012 01:32 2,3 C 82 % 1034,3 hPa 0,0 l/m 2,5 km/h (1 Bft) W-NW 292 -0,4 C 2,3 C
09.03.2012 01:37 2,2 C 82 % 1034,3 hPa 0,0 l/m 5,0 km/h (1 Bft) W 270 -0,5 C 0,9 C
09.03.2012 01:42 2,2 C 82 % 1034,3 hPa 0,0 l/m 2,5 km/h (1 Bft) W-NW 292 -0,5 C 2,2 C
09.03.2012 01:47 2,2 C 82 % 1034,4 hPa 0,0 l/m 2,9 km/h (1 Bft) W-NW 292 -0,5 C 2,2 C
09.03.2012 01:52 2,1 C 82 % 1034,5 hPa 0,0 l/m 2,5 km/h (1 Bft) W 270 -0,6 C 2,1 C
09.03.2012 01:57 2,1 C 83 % 1034,4 hPa 0,0 l/m 2,2 km/h (1 Bft) W 270 -0,5 C 2,1 C
09.03.2012 02:02 2,1 C 83 % 1034,4 hPa 0,0 l/m 4,7 km/h (1 Bft) W 270 -0,5 C 0,9 C
09.03.2012 02:07 2,1 C 83 % 1034,5 hPa 0,0 l/m 1,8 km/h (1 Bft) W 270 -0,5 C 2,1 C
09.03.2012 02:12 2,1 C 83 % 1034,5 hPa 0,0 l/m 2,5 km/h (1 Bft) W-SW 247 -0,5 C 2,1 C
09.03.2012 02:17 2,2 C 83 % 1034,4 hPa 0,0 l/m 0,0 km/h (0 Bft) W 270 -0,4 C 2,2 C
09.03.2012 02:22 2,1 C 83 % 1034,5 hPa 0,0 l/m 1,4 km/h (1 Bft) W-SW 247 -0,5 C 2,1 C
09.03.2012 02:27 2,1 C 83 % 1034,7 hPa 0,0 l/m 3,6 km/h (1 Bft) W-SW 247 -0,5 C 2,1 C
09.03.2012 02:32 2,1 C 83 % 1034,8 hPa 0,0 l/m 2,2 km/h (1 Bft) W-SW 247 -0,5 C 2,1 C
09.03.2012 02:37 2,1 C 83 % 1034,6 hPa 0,0 l/m 0,0 km/h (0 Bft) W 270 -0,5 C 2,1 C
09.03.2012 02:42 2,1 C 83 % 1034,6 hPa 0,0 l/m 2,2 km/h (1 Bft) W 270 -0,5 C 2,1 C
09.03.2012 02:47 1,9 C 83 % 1034,6 hPa 0,0 l/m 0,0 km/h (0 Bft) W 270 -0,7 C 1,9 C
09.03.2012 02:52 1,9 C 83 % 1034,7 hPa 0,0 l/m 4,0 km/h (1 Bft) W-SW 247 -0,7 C 1,9 C
09.03.2012 02:57 1,9 C 83 % 1034,8 hPa 0,0 l/m 2,5 km/h (1 Bft) W-SW 247 -0,7 C 1,9 C
09.03.2012 03:02 1,9 C 83 % 1034,7 hPa 0,0 l/m 4,0 km/h (1 Bft) W-SW 247 -0,7 C 1,9 C
09.03.2012 03:07 1,9 C 83 % 1034,8 hPa 0,0 l/m 2,2 km/h (1 Bft) W 270 -0,7 C 1,9 C
09.03.2012 03:12 1,9 C 83 % 1034,9 hPa 0,0 l/m 2,2 km/h (1 Bft) W-SW 247 -0,7 C 1,9 C
09.03.2012 03:17 1,9 C 83 % 1034,9 hPa 0,0 l/m 0,0 km/h (0 Bft) W-SW 247 -0,7 C 1,9 C
09.03.2012 03:22 1,8 C 83 % 1034,9 hPa 0,0 l/m 2,5 km/h (1 Bft) W 270 -0,8 C 1,8 C
09.03.2012 03:27 1,8 C 84 % 1034,8 hPa 0,0 l/m 0,0 km/h (0 Bft) W-SW 247 -0,6 C 1,8 C
09.03.2012 03:32 1,8 C 84 % 1034,9 hPa 0,0 l/m 1,8 km/h (1 Bft) W 270 -0,6 C 1,8 C
09.03.2012 03:37 1,8 C 84 % 1035,0 hPa 0,0 l/m 3,2 km/h (1 Bft) W 270 -0,6 C 1,8 C
09.03.2012 03:42 1,8 C 84 % 1035,2 hPa 0,0 l/m 2,5 km/h (1 Bft) W-SW 247 -0,6 C 1,8 C
09.03.2012 03:47 1,8 C 84 % 1035,0 hPa 0,0 l/m 2,5 km/h (1 Bft) W 270 -0,6 C 1,8 C
09.03.2012 03:52 1,8 C 84 % 1035,1 hPa 0,0 l/m 2,2 km/h (1 Bft) W 270 -0,6 C 1,8 C
09.03.2012 03:57 1,8 C 84 % 1035,3 hPa 0,0 l/m 1,1 km/h (1 Bft) W-SW 247 -0,6 C 1,8 C
09.03.2012 04:02 1,8 C 84 % 1035,2 hPa 0,0 l/m 1,1 km/h (1 Bft) W-SW 247 -0,6 C 1,8 C
09.03.2012 04:07 1,6 C 84 % 1035,4 hPa 0,0 l/m 3,6 km/h (1 Bft) W 270 -0,8 C 1,6 C
09.03.2012 04:12 1,6 C 84 % 1035,2 hPa 0,0 l/m 4,0 km/h (1 Bft) W-SW 247 -0,8 C 1,6 C
09.03.2012 04:17 1,6 C 84 % 1035,4 hPa 0,0 l/m 2,5 km/h (1 Bft) W-SW 247 -0,8 C 1,6 C
09.03.2012 04:22 1,6 C 85 % 1035,2 hPa 0,0 l/m 4,3 km/h (1 Bft) W-SW 247 -0,6 C 1,6 C
09.03.2012 04:27 1,6 C 85 % 1035,4 hPa 0,0 l/m 0,0 km/h (0 Bft) SW 225 -0,6 C 1,6 C
09.03.2012 04:32 1,5 C 85 % 1035,4 hPa 0,0 l/m 4,3 km/h (1 Bft) SW 225 -0,7 C 1,5 C
09.03.2012 04:37 1,5 C 85 % 1035,4 hPa 0,0 l/m 0,0 km/h (0 Bft) SW 225 -0,7 C 1,5 C
09.03.2012 04:42 1,5 C 85 % 1035,2 hPa 0,0 l/m 1,4 km/h (1 Bft) S 180 -0,7 C 1,5 C
09.03.2012 04:47 1,3 C 85 % 1035,2 hPa 0,0 l/m 0,0 km/h (0 Bft) S-SW 202 -0,9 C 1,3 C
09.03.2012 04:52 1,3 C 85 % 1035,2 hPa 0,0 l/m 1,1 km/h (1 Bft) S-SW 202 -0,9 C 1,3 C
09.03.2012 04:57 1,3 C 85 % 1035,2 hPa 0,0 l/m 2,9 km/h (1 Bft) W-SW 247 -0,9 C 1,3 C
09.03.2012 05:02 1,3 C 85 % 1035,2 hPa 0,0 l/m 2,2 km/h (1 Bft) W 270 -0,9 C 1,3 C
09.03.2012 05:07 1,3 C 85 % 1035,2 hPa 0,0 l/m 3,6 km/h (1 Bft) S 180 -0,9 C 1,3 C
09.03.2012 05:12 1,3 C 85 % 1035,2 hPa 0,0 l/m 4,7 km/h (1 Bft) W-SW 247 -0,9 C 0,0 C
09.03.2012 05:17 1,3 C 85 % 1035,3 hPa 0,0 l/m 4,0 km/h (1 Bft) W-SW 247 -0,9 C 1,3 C
09.03.2012 05:22 1,3 C 85 % 1035,2 hPa 0,0 l/m 10,1 km/h (2 Bft) W-SW 247 -0,9 C -1,8 C
09.03.2012 05:27 1,3 C 85 % 1035,3 hPa 0,0 l/m 4,0 km/h (1 Bft) W 270 -0,9 C 1,3 C
09.03.2012 05:32 1,3 C 86 % 1035,0 hPa 0,0 l/m 4,0 km/h (1 Bft) W-SW 247 -0,8 C 1,3 C
09.03.2012 05:37 1,3 C 86 % 1035,1 hPa 0,0 l/m 4,7 km/h (1 Bft) SW 225 -0,8 C 0,0 C
09.03.2012 05:42 1,3 C 86 % 1035,1 hPa 0,0 l/m 1,4 km/h (1 Bft) W-SW 247 -0,8 C 1,3 C
09.03.2012 05:47 1,3 C 86 % 1035,4 hPa 0,0 l/m 2,2 km/h (1 Bft) SW 225 -0,8 C 1,3 C
09.03.2012 05:52 1,2 C 86 % 1035,1 hPa 0,0 l/m 0,0 km/h (0 Bft) S 180 -0,9 C 1,2 C
09.03.2012 05:57 1,2 C 86 % 1035,4 hPa 0,0 l/m 1,4 km/h (1 Bft) S-SW 202 -0,9 C 1,2 C
09.03.2012 06:02 1,1 C 86 % 1035,4 hPa 0,0 l/m 3,6 km/h (1 Bft) S 180 -1,0 C 1,1 C
09.03.2012 06:07 1,1 C 86 % 1035,4 hPa 0,0 l/m 3,6 km/h (1 Bft) S 180 -1,0 C 1,1 C
09.03.2012 06:12 1,1 C 86 % 1035,6 hPa 0,0 l/m 2,5 km/h (1 Bft) S-SW 202 -1,0 C 1,1 C
09.03.2012 06:17 1,1 C 86 % 1035,5 hPa 0,0 l/m 2,2 km/h (1 Bft) W-SW 247 -1,0 C 1,1 C
09.03.2012 06:22 1,1 C 86 % 1035,6 hPa 0,0 l/m 3,6 km/h (1 Bft) SW 225 -1,0 C 1,1 C
09.03.2012 06:27 1,0 C 86 % 1035,5 hPa 0,0 l/m 4,3 km/h (1 Bft) SW 225 -1,1 C 1,0 C
09.03.2012 06:32 1,0 C 86 % 1035,6 hPa 0,0 l/m 2,2 km/h (1 Bft) W 270 -1,1 C 1,0 C
09.03.2012 06:37 1,0 C 86 % 1035,6 hPa 0,0 l/m 4,7 km/h (1 Bft) W 270 -1,1 C -0,3 C
09.03.2012 06:42 1,0 C 87 % 1035,6 hPa 0,0 l/m 4,0 km/h (1 Bft) SW 225 -0,9 C 1,0 C
09.03.2012 06:47 1,0 C 87 % 1035,7 hPa 0,0 l/m 3,6 km/h (1 Bft) SW 225 -0,9 C 1,0 C
09.03.2012 06:52 1,0 C 87 % 1035,7 hPa 0,0 l/m 2,5 km/h (1 Bft) S-SW 202 -0,9 C 1,0 C
09.03.2012 06:57 1,0 C 87 % 1035,7 hPa 0,0 l/m 10,8 km/h (2 Bft) W 270 -0,9 C -2,3 C
09.03.2012 07:02 1,1 C 87 % 1035,5 hPa 0,0 l/m 6,5 km/h (2 Bft) SW 225 -0,8 C -0,9 C
09.03.2012 07:07 1,1 C 87 % 1035,8 hPa 0,0 l/m 6,5 km/h (2 Bft) SW 225 -0,8 C -0,9 C
09.03.2012 07:12 1,1 C 87 % 1035,7 hPa 0,0 l/m 4,0 km/h (1 Bft) SW 225 -0,8 C 1,1 C
09.03.2012 07:17 1,1 C 87 % 1035,8 hPa 0,0 l/m 0,0 km/h (0 Bft) SW 225 -0,8 C 1,1 C
09.03.2012 07:22 1,1 C 87 % 1035,8 hPa 0,0 l/m 1,8 km/h (1 Bft) W-SW 247 -0,8 C 1,1 C
09.03.2012 07:27 1,1 C 87 % 1035,8 hPa 0,0 l/m 3,6 km/h (1 Bft) SW 225 -0,8 C 1,1 C
09.03.2012 07:32 1,2 C 87 % 1035,9 hPa 0,0 l/m 6,1 km/h (2 Bft) S 180 -0,7 C -0,7 C
09.03.2012 07:37 1,2 C 87 % 1036,0 hPa 0,0 l/m 4,3 km/h (1 Bft) SW 225 -0,7 C 1,2 C
09.03.2012 07:42 1,3 C 87 % 1035,8 hPa 0,0 l/m 6,5 km/h (2 Bft) S-SW 202 -0,6 C -0,7 C
09.03.2012 07:47 1,3 C 87 % 1036,1 hPa 0,0 l/m 2,9 km/h (1 Bft) SW 225 -0,6 C 1,3 C
09.03.2012 07:52 1,3 C 87 % 1036,1 hPa 0,0 l/m 6,1 km/h (2 Bft) W-SW 247 -0,6 C -0,6 C
09.03.2012 07:57 1,4 C 88 % 1036,1 hPa 0,0 l/m 5,4 km/h (1 Bft) W 270 -0,4 C -0,2 C
09.03.2012 08:02 1,5 C 88 % 1036,2 hPa 0,0 l/m 3,2 km/h (1 Bft) W 270 -0,3 C 1,5 C
09.03.2012 08:07 1,5 C 88 % 1036,2 hPa 0,0 l/m 8,3 km/h (2 Bft) W 270 -0,3 C -1,1 C
09.03.2012 08:12 1,6 C 88 % 1036,4 hPa 0,0 l/m 7,2 km/h (2 Bft) W-SW 247 -0,2 C -0,6 C
09.03.2012 08:17 1,8 C 88 % 1036,5 hPa 0,0 l/m 4,0 km/h (1 Bft) W-NW 292 0,0 C 1,8 C
09.03.2012 08:22 1,8 C 88 % 1036,4 hPa 0,0 l/m 9,7 km/h (2 Bft) W-SW 247 0,0 C -1,1 C
09.03.2012 08:27 1,9 C 88 % 1036,6 hPa 0,0 l/m 4,0 km/h (1 Bft) W 270 0,1 C 1,9 C
09.03.2012 08:32 1,9 C 88 % 1036,5 hPa 0,0 l/m 8,3 km/h (2 Bft) W 270 0,1 C -0,6 C
09.03.2012 08:37 2,1 C 87 % 1036,6 hPa 0,0 l/m 8,6 km/h (2 Bft) SW 225 0,2 C -0,4 C
09.03.2012 08:42 2,1 C 87 % 1036,7 hPa 0,0 l/m 9,0 km/h (2 Bft) SW 225 0,2 C -0,6 C
09.03.2012 08:47 2,3 C 87 % 1036,8 hPa 0,0 l/m 3,2 km/h (1 Bft) W-NW 292 0,4 C 2,3 C
09.03.2012 08:52 2,4 C 87 % 1036,6 hPa 0,0 l/m 9,7 km/h (2 Bft) W 270 0,5 C -0,4 C
09.03.2012 08:57 2,4 C 87 % 1036,7 hPa 0,0 l/m 8,3 km/h (2 Bft) W-SW 247 0,5 C -0,0 C
09.03.2012 09:02 2,5 C 87 % 1036,7 hPa 0,0 l/m 7,2 km/h (2 Bft) S-SW 202 0,6 C 0,4 C
09.03.2012 09:07 2,7 C 87 % 1036,9 hPa 0,0 l/m 6,1 km/h (2 Bft) SW 225 0,8 C 1,0 C
09.03.2012 09:12 2,8 C 87 % 1036,8 hPa 0,0 l/m 7,6 km/h (2 Bft) W-SW 247 0,9 C 0,7 C
09.03.2012 09:17 2,9 C 87 % 1036,8 hPa 0,0 l/m 9,0 km/h (2 Bft) W-SW 247 1,0 C 0,4 C
09.03.2012 09:22 3,1 C 87 % 1036,9 hPa 0,0 l/m 14,0 km/h (3 Bft) W-SW 247 1,2 C -0,4 C
09.03.2012 09:27 3,3 C 87 % 1036,9 hPa 0,0 l/m 7,2 km/h (2 Bft) W 270 1,3 C 1,4 C
09.03.2012 09:32 3,4 C 87 % 1036,9 hPa 0,0 l/m 11,2 km/h (2 Bft) S-SW 202 1,4 C 0,5 C
09.03.2012 09:37 3,5 C 87 % 1036,8 hPa 0,0 l/m 10,4 km/h (2 Bft) W-SW 247 1,5 C 0,8 C
09.03.2012 09:42 3,6 C 87 % 1036,9 hPa 0,0 l/m 5,4 km/h (1 Bft) W 270 1,6 C 2,3 C
09.03.2012 09:47 3,8 C 87 % 1037,0 hPa 0,0 l/m 16,9 km/h (3 Bft) S-SW 202 1,8 C -0,0 C
09.03.2012 09:52 3,9 C 86 % 1036,9 hPa 0,0 l/m 9,0 km/h (2 Bft) W 270 1,8 C 1,6 C
09.03.2012 09:57 4,1 C 86 % 1037,0 hPa 0,0 l/m 14,4 km/h (3 Bft) W 270 2,0 C 0,7 C
09.03.2012 10:02 4,3 C 85 % 1037,0 hPa 0,0 l/m 16,6 km/h (3 Bft) W-SW 247 2,0 C 0,6 C
09.03.2012 10:07 4,5 C 85 % 1036,7 hPa 0,0 l/m 16,9 km/h (3 Bft) W-SW 247 2,2 C 0,8 C
09.03.2012 10:12 4,6 C 85 % 1036,8 hPa 0,0 l/m 9,7 km/h (2 Bft) W-SW 247 2,3 C 2,2 C
09.03.2012 10:17 4,8 C 84 % 1036,9 hPa 0,0 l/m 10,1 km/h (2 Bft) W 270 2,3 C 2,4 C
09.03.2012 10:22 4,9 C 84 % 1036,8 hPa 0,0 l/m 9,4 km/h (2 Bft) W 270 2,4 C 2,7 C
09.03.2012 10:27 5,1 C 83 % 1036,9 hPa 0,0 l/m 19,4 km/h (3 Bft) W-SW 247 2,5 C 1,3 C
09.03.2012 10:32 5,2 C 83 % 1036,9 hPa 0,0 l/m 9,4 km/h (2 Bft) W 270 2,6 C 3,0 C
09.03.2012 10:37 5,3 C 83 % 1036,9 hPa 0,0 l/m 10,8 km/h (2 Bft) W-SW 247 2,7 C 2,9 C
09.03.2012 10:42 5,4 C 83 % 1036,7 hPa 0,0 l/m 4,7 km/h (1 Bft) W 270 2,7 C 4,7 C
09.03.2012 10:47 5,6 C 82 % 1036,7 hPa 0,0 l/m 8,3 km/h (2 Bft) W-SW 247 2,8 C 3,8 C
09.03.2012 10:52 5,6 C 81 % 1036,9 hPa 0,0 l/m 6,5 km/h (2 Bft) W 270 2,6 C 4,3 C
09.03.2012 10:57 5,8 C 81 % 1036,9 hPa 0,0 l/m 6,1 km/h (2 Bft) W 270 2,8 C 4,6 C
09.03.2012 11:02 5,8 C 81 % 1036,8 hPa 0,0 l/m 5,8 km/h (2 Bft) W-SW 247 2,8 C 4,7 C
09.03.2012 11:07 5,9 C 81 % 1036,8 hPa 0,0 l/m 23,0 km/h (4 Bft) W-SW 247 2,9 C 1,9 C
09.03.2012 11:12 6,1 C 80 % 1037,0 hPa 0,0 l/m 10,4 km/h (2 Bft) W-SW 247 2,9 C 3,9 C
09.03.2012 11:17 6,3 C 80 % 1037,0 hPa 0,0 l/m 12,2 km/h (2 Bft) W-SW 247 3,1 C 3,8 C
09.03.2012 11:22 6,5 C 80 % 1036,6 hPa 0,0 l/m 15,1 km/h (3 Bft) S-SW 202 3,3 C 3,6 C
09.03.2012 11:27 6,6 C 79 % 1036,6 hPa 0,0 l/m 14,8 km/h (3 Bft) W-SW 247 3,2 C 3,8 C
09.03.2012 11:32 6,7 C 78 % 1036,6 hPa 0,0 l/m 5,0 km/h (1 Bft) W-NW 292 3,1 C 6,0 C
09.03.2012 11:37 6,8 C 78 % 1036,6 hPa 0,0 l/m 9,7 km/h (2 Bft) W-SW 247 3,2 C 4,9 C
09.03.2012 11:42 6,9 C 78 % 1036,7 hPa 0,0 l/m 14,8 km/h (3 Bft) W-SW 247 3,3 C 4,1 C
09.03.2012 11:47 7,0 C 78 % 1036,7 hPa 0,0 l/m 14,8 km/h (3 Bft) W-SW 247 3,4 C 4,2 C
09.03.2012 11:52 7,2 C 77 % 1036,6 hPa 0,0 l/m 8,3 km/h (2 Bft) W 270 3,4 C 5,6 C
09.03.2012 11:57 7,2 C 75 % 1036,5 hPa 0,0 l/m 14,8 km/h (3 Bft) W 270 3,1 C 4,5 C
09.03.2012 12:02 7,2 C 75 % 1036,5 hPa 0,0 l/m 19,4 km/h (3 Bft) W-SW 247 3,1 C 3,9 C
09.03.2012 12:07 7,3 C 75 % 1036,3 hPa 0,0 l/m 9,7 km/h (2 Bft) W-NW 292 3,2 C 5,5 C
09.03.2012 12:12 7,5 C 75 % 1036,4 hPa 0,0 l/m 9,0 km/h (2 Bft) W-SW 247 3,4 C 5,8 C
09.03.2012 12:17 7,6 C 75 % 1036,3 hPa 0,0 l/m 10,1 km/h (2 Bft) SW 225 3,5 C 5,7 C
09.03.2012 12:22 7,7 C 74 % 1036,3 hPa 0,0 l/m 10,4 km/h (2 Bft) W-SW 247 3,4 C 5,8 C
09.03.2012 12:27 7,8 C 74 % 1036,2 hPa 0,0 l/m 6,1 km/h (2 Bft) W-SW 247 3,5 C 6,9 C
09.03.2012 12:32 7,9 C 74 % 1036,2 hPa 0,0 l/m 10,1 km/h (2 Bft) W-SW 247 3,6 C 6,1 C
09.03.2012 12:37 8,0 C 73 % 1036,2 hPa 0,0 l/m 14,4 km/h (3 Bft) W-SW 247 3,5 C 5,5 C
09.03.2012 12:42 8,1 C 72 % 1036,1 hPa 0,0 l/m 8,3 km/h (2 Bft) S-SW 202 3,4 C 6,7 C
09.03.2012 12:47 8,1 C 72 % 1036,2 hPa 0,0 l/m 10,8 km/h (2 Bft) W-SW 247 3,4 C 6,2 C
09.03.2012 12:52 8,2 C 72 % 1036,2 hPa 0,0 l/m 15,1 km/h (3 Bft) S-SW 202 3,5 C 5,7 C
09.03.2012 12:57 8,4 C 71 % 1036,1 hPa 0,0 l/m 14,0 km/h (3 Bft) SW 225 3,5 C 6,1 C
09.03.2012 13:02 8,4 C 70 % 1036,1 hPa 0,0 l/m 21,2 km/h (4 Bft) W 270 3,3 C 5,2 C
09.03.2012 13:07 8,5 C 69 % 1035,9 hPa 0,0 l/m 14,8 km/h (3 Bft) W 270 3,1 C 6,1 C
09.03.2012 13:12 8,6 C 69 % 1035,8 hPa 0,0 l/m 15,1 km/h (3 Bft) W 270 3,2 C 6,2 C
09.03.2012 13:17 8,9 C 69 % 1035,8 hPa 0,0 l/m 11,2 km/h (2 Bft) S-SW 202 3,5 C 7,1 C
09.03.2012 13:22 9,1 C 68 % 1035,8 hPa 0,0 l/m 9,4 km/h (2 Bft) W-SW 247 3,5 C 7,7 C
09.03.2012 13:27 9,2 C 67 % 1035,9 hPa 0,0 l/m 18,7 km/h (3 Bft) W-SW 247 3,4 C 6,5 C
09.03.2012 13:32 9,3 C 66 % 1035,8 hPa 0,0 l/m 6,8 km/h (2 Bft) SW 225 3,3 C 8,5 C
09.03.2012 13:37 9,3 C 65 % 1035,8 hPa 0,0 l/m 6,8 km/h (2 Bft) SW 225 3,1 C 8,5 C
09.03.2012 13:42 9,3 C 64 % 1035,6 hPa 0,0 l/m 14,4 km/h (3 Bft) W-SW 247 2,8 C 7,1 C
09.03.2012 13:47 9,3 C 64 % 1035,4 hPa 0,0 l/m 11,9 km/h (2 Bft) W-SW 247 2,8 C 7,5 C
09.03.2012 13:52 9,3 C 64 % 1035,5 hPa 0,0 l/m 8,3 km/h (2 Bft) SW 225 2,8 C 8,1 C
09.03.2012 13:57 9,3 C 64 % 1035,4 hPa 0,0 l/m 8,6 km/h (2 Bft) SW 225 2,8 C 8,1 C
09.03.2012 14:02 9,4 C 64 % 1035,2 hPa 0,0 l/m 14,8 km/h (3 Bft) W-SW 247 2,9 C 7,2 C
09.03.2012 14:07 9,5 C 64 % 1035,2 hPa 0,0 l/m 10,1 km/h (2 Bft) W-SW 247 3,0 C 8,0 C
09.03.2012 14:12 9,6 C 64 % 1035,1 hPa 0,0 l/m 12,6 km/h (3 Bft) S-SO 157 3,1 C 7,7 C
09.03.2012 14:17 9,6 C 64 % 1035,2 hPa 0,0 l/m 8,3 km/h (2 Bft) W 270 3,1 C 8,5 C
09.03.2012 14:22 9,8 C 64 % 1035,0 hPa 0,0 l/m 5,8 km/h (2 Bft) S-SW 202 3,3 C 9,3 C
09.03.2012 14:27 9,8 C 64 % 1035,1 hPa 0,0 l/m 14,0 km/h (3 Bft) SW 225 3,3 C 7,8 C
09.03.2012 14:32 9,8 C 64 % 1035,0 hPa 0,0 l/m 15,8 km/h (3 Bft) W 270 3,3 C 7,6 C
09.03.2012 14:37 9,6 C 62 % 1035,1 hPa 0,0 l/m 18,4 km/h (3 Bft) W-SW 247 2,7 C 7,0 C
09.03.2012 14:42 9,6 C 62 % 1035,0 hPa 0,0 l/m 6,5 km/h (2 Bft) W 270 2,7 C 8,9 C
09.03.2012 14:47 9,6 C 62 % 1034,9 hPa 0,0 l/m 13,3 km/h (3 Bft) W-SW 247 2,7 C 7,6 C
09.03.2012 14:52 9,5 C 62 % 1035,1 hPa 0,0 l/m 25,6 km/h (4 Bft) W-SW 247 2,6 C 6,3 C
09.03.2012 14:57 9,5 C 62 % 1035,1 hPa 0,0 l/m 12,6 km/h (3 Bft) S-SW 202 2,6 C 7,6 C
09.03.2012 15:02 9,5 C 63 % 1034,9 hPa 0,0 l/m 5,4 km/h (1 Bft) W 270 2,8 C 9,1 C
09.03.2012 15:07 9,5 C 63 % 1034,8 hPa 0,0 l/m 19,4 km/h (3 Bft) SW 225 2,8 C 6,8 C
09.03.2012 15:12 9,4 C 62 % 1034,8 hPa 0,0 l/m 15,8 km/h (3 Bft) SW 225 2,5 C 7,1 C
09.03.2012 15:17 9,3 C 63 % 1034,6 hPa 0,0 l/m 11,9 km/h (2 Bft) W-SW 247 2,6 C 7,5 C
09.03.2012 15:22 9,3 C 63 % 1034,5 hPa 0,0 l/m 16,6 km/h (3 Bft) W 270 2,6 C 6,9 C
09.03.2012 15:27 9,3 C 63 % 1034,8 hPa 0,0 l/m 11,2 km/h (2 Bft) W 270 2,6 C 7,6 C
09.03.2012 15:32 9,3 C 63 % 1034,8 hPa 0,0 l/m 20,9 km/h (4 Bft) SW 225 2,6 C 6,4 C
09.03.2012 15:37 9,3 C 63 % 1034,8 hPa 0,0 l/m 10,1 km/h (2 Bft) W-SW 247 2,6 C 7,8 C
09.03.2012 15:42 9,3 C 64 % 1034,7 hPa 0,0 l/m 15,1 km/h (3 Bft) W 270 2,8 C 7,0 C
09.03.2012 15:47 9,3 C 64 % 1034,7 hPa 0,0 l/m 9,4 km/h (2 Bft) W-SW 247 2,8 C 7,9 C
09.03.2012 15:52 9,3 C 64 % 1034,6 hPa 0,0 l/m 13,7 km/h (3 Bft) SW 225 2,8 C 7,2 C
09.03.2012 15:57 9,4 C 64 % 1034,6 hPa 0,0 l/m 4,0 km/h (1 Bft) W-SW 247 2,9 C 9,4 C
09.03.2012 16:02 9,5 C 64 % 1034,6 hPa 0,0 l/m 10,4 km/h (2 Bft) W 270 3,0 C 8,0 C
09.03.2012 16:07 9,5 C 64 % 1034,4 hPa 0,0 l/m 12,2 km/h (2 Bft) W-SW 247 3,0 C 7,7 C
09.03.2012 16:12 9,5 C 64 % 1034,3 hPa 0,0 l/m 18,0 km/h (3 Bft) SW 225 3,0 C 7,0 C
09.03.2012 16:17 9,5 C 64 % 1034,2 hPa 0,0 l/m 14,0 km/h (3 Bft) S-SW 202 3,0 C 7,4 C
09.03.2012 16:22 9,5 C 64 % 1034,2 hPa 0,0 l/m 7,2 km/h (2 Bft) S-SW 202 3,0 C 8,6 C
09.03.2012 16:27 9,5 C 64 % 1034,2 hPa 0,0 l/m 6,5 km/h (2 Bft) W-SW 247 3,0 C 8,8 C
09.03.2012 16:32 9,4 C 64 % 1034,2 hPa 0,0 l/m 21,6 km/h (4 Bft) W 270 2,9 C 6,5 C
09.03.2012 16:37 9,5 C 64 % 1034,1 hPa 0,0 l/m 12,2 km/h (2 Bft) S 180 3,0 C 7,7 C
09.03.2012 16:42 9,5 C 65 % 1034,1 hPa 0,0 l/m 9,7 km/h (2 Bft) W-SW 247 3,3 C 8,1 C
09.03.2012 16:47 9,5 C 64 % 1034,1 hPa 0,0 l/m 13,0 km/h (3 Bft) S-SW 202 3,0 C 7,6 C
09.03.2012 16:52 9,4 C 64 % 1034,0 hPa 0,0 l/m 15,8 km/h (3 Bft) W-SW 247 2,9 C 7,1 C
09.03.2012 16:57 9,4 C 64 % 1034,0 hPa 0,0 l/m 11,9 km/h (2 Bft) W-SW 247 2,9 C 7,6 C
09.03.2012 17:02 9,3 C 65 % 1034,0 hPa 0,0 l/m 10,8 km/h (2 Bft) W 270 3,1 C 7,7 C
09.03.2012 17:07 9,3 C 65 % 1033,9 hPa 0,0 l/m 10,1 km/h (2 Bft) W 270 3,1 C 7,8 C
09.03.2012 17:12 9,2 C 66 % 1034,1 hPa 0,0 l/m 6,5 km/h (2 Bft) SW 225 3,2 C 8,4 C
09.03.2012 17:17 9,1 C 66 % 1034,1 hPa 0,0 l/m 11,2 km/h (2 Bft) SW 225 3,1 C 7,4 C
09.03.2012 17:22 9,1 C 66 % 1034,0 hPa 0,0 l/m 11,2 km/h (2 Bft) W-SW 247 3,1 C 7,4 C
09.03.2012 17:27 9,0 C 66 % 1034,0 hPa 0,0 l/m 4,7 km/h (1 Bft) W-NW 292 3,0 C 8,7 C
09.03.2012 17:32 8,9 C 67 % 1034,1 hPa 0,0 l/m 7,9 km/h (2 Bft) W-SW 247 3,1 C 7,7 C
09.03.2012 17:37 8,9 C 67 % 1034,0 hPa 0,0 l/m 7,2 km/h (2 Bft) W 270 3,1 C 7,9 C
09.03.2012 17:42 8,9 C 67 % 1034,3 hPa 0,0 l/m 4,0 km/h (1 Bft) SW 225 3,1 C 8,9 C
09.03.2012 17:47 8,8 C 67 % 1034,3 hPa 0,0 l/m 6,1 km/h (2 Bft) SW 225 3,0 C 8,1 C
09.03.2012 17:52 8,8 C 67 % 1034,3 hPa 0,0 l/m 3,6 km/h (1 Bft) W-SW 247 3,0 C 8,8 C
09.03.2012 17:57 8,7 C 68 % 1034,0 hPa 0,0 l/m 2,9 km/h (1 Bft) S 180 3,1 C 8,7 C
09.03.2012 18:02 8,6 C 68 % 1034,0 hPa 0,0 l/m 5,0 km/h (1 Bft) SW 225 3,0 C 8,2 C
09.03.2012 18:07 8,5 C 68 % 1034,0 hPa 0,0 l/m 7,6 km/h (2 Bft) SW 225 2,9 C 7,3 C
09.03.2012 18:12 8,5 C 68 % 1034,1 hPa 0,0 l/m 6,1 km/h (2 Bft) SW 225 2,9 C 7,7 C
09.03.2012 18:17 8,4 C 69 % 1034,0 hPa 0,0 l/m 6,5 km/h (2 Bft) SW 225 3,0 C 7,5 C
09.03.2012 18:22 8,3 C 69 % 1034,0 hPa 0,0 l/m 4,0 km/h (1 Bft) W-SW 247 3,0 C 8,3 C
09.03.2012 18:27 8,3 C 69 % 1034,0 hPa 0,0 l/m 7,6 km/h (2 Bft) S-SW 202 3,0 C 7,1 C
09.03.2012 18:32 8,2 C 69 % 1034,0 hPa 0,0 l/m 10,8 km/h (2 Bft) S-SW 202 2,9 C 6,3 C
09.03.2012 18:37 8,1 C 69 % 1033,9 hPa 0,0 l/m 7,2 km/h (2 Bft) W-SW 247 2,8 C 7,0 C
09.03.2012 18:42 8,1 C 70 % 1034,0 hPa 0,0 l/m 12,6 km/h (3 Bft) SW 225 3,0 C 5,9 C
09.03.2012 18:47 8,1 C 70 % 1033,9 hPa 0,0 l/m 10,8 km/h (2 Bft) S-SW 202 3,0 C 6,2 C
09.03.2012 18:52 8,1 C 70 % 1034,1 hPa 0,0 l/m 11,2 km/h (2 Bft) S-SW 202 3,0 C 6,1 C
09.03.2012 18:57 8,0 C 70 % 1034,1 hPa 0,0 l/m 9,7 km/h (2 Bft) SW 225 2,9 C 6,3 C
09.03.2012 19:02 8,0 C 70 % 1034,1 hPa 0,0 l/m 5,8 km/h (2 Bft) SW 225 2,9 C 7,2 C
09.03.2012 19:07 7,9 C 70 % 1034,3 hPa 0,0 l/m 9,0 km/h (2 Bft) W-SW 247 2,8 C 6,3 C
09.03.2012 19:12 7,9 C 70 % 1034,3 hPa 0,0 l/m 5,4 km/h (1 Bft) S-SW 202 2,8 C 7,2 C
09.03.2012 19:17 7,9 C 71 % 1034,3 hPa 0,0 l/m 5,0 km/h (1 Bft) W-SW 247 3,0 C 7,4 C
09.03.2012 19:22 7,9 C 71 % 1034,3 hPa 0,0 l/m 4,7 km/h (1 Bft) W-SW 247 3,0 C 7,5 C
09.03.2012 19:27 7,9 C 71 % 1034,2 hPa 0,0 l/m 4,3 km/h (1 Bft) W 270 3,0 C 7,9 C
09.03.2012 19:32 7,9 C 71 % 1034,2 hPa 0,0 l/m 6,1 km/h (2 Bft) W-SW 247 3,0 C 7,0 C
09.03.2012 19:37 7,9 C 71 % 1034,0 hPa 0,0 l/m 5,8 km/h (2 Bft) S 180 3,0 C 7,1 C
09.03.2012 19:42 7,9 C 71 % 1034,3 hPa 0,0 l/m 10,8 km/h (2 Bft) S-SW 202 3,0 C 6,0 C
09.03.2012 19:47 7,9 C 71 % 1034,3 hPa 0,0 l/m 5,0 km/h (1 Bft) W-SW 247 3,0 C 7,4 C
09.03.2012 19:52 7,9 C 70 % 1034,3 hPa 0,0 l/m 6,8 km/h (2 Bft) SW 225 2,8 C 6,8 C
09.03.2012 19:57 7,9 C 70 % 1034,3 hPa 0,0 l/m 12,2 km/h (2 Bft) W-SW 247 2,8 C 5,7 C
09.03.2012 20:02 7,9 C 70 % 1034,4 hPa 0,0 l/m 11,2 km/h (2 Bft) SW 225 2,8 C 5,9 C
09.03.2012 20:07 7,9 C 70 % 1034,3 hPa 0,0 l/m 14,8 km/h (3 Bft) S-SW 202 2,8 C 5,4 C
09.03.2012 20:12 7,9 C 70 % 1034,2 hPa 0,0 l/m 13,0 km/h (3 Bft) SW 225 2,8 C 5,6 C
09.03.2012 20:17 7,9 C 70 % 1034,3 hPa 0,0 l/m 10,4 km/h (2 Bft) W 270 2,8 C 6,0 C
09.03.2012 20:22 7,9 C 70 % 1034,3 hPa 0,0 l/m 9,4 km/h (2 Bft) S 180 2,8 C 6,2 C
09.03.2012 20:27 7,9 C 70 % 1034,4 hPa 0,0 l/m 6,5 km/h (2 Bft) W-SW 247 2,8 C 6,9 C
09.03.2012 20:32 7,8 C 71 % 1034,4 hPa 0,0 l/m 7,6 km/h (2 Bft) S-SO 157 2,9 C 6,5 C
09.03.2012 20:37 7,8 C 71 % 1034,3 hPa 0,0 l/m 7,2 km/h (2 Bft) S-SW 202 2,9 C 6,6 C
09.03.2012 20:42 7,8 C 71 % 1034,3 hPa 0,0 l/m 13,0 km/h (3 Bft) SW 225 2,9 C 5,5 C
09.03.2012 20:47 7,8 C 71 % 1034,3 hPa 0,0 l/m 9,4 km/h (2 Bft) S 180 2,9 C 6,1 C
09.03.2012 20:52 7,8 C 71 % 1034,3 hPa 0,0 l/m 8,6 km/h (2 Bft) S-SW 202 2,9 C 6,3 C
09.03.2012 20:57 7,6 C 71 % 1034,2 hPa 0,0 l/m 9,0 km/h (2 Bft) S-SW 202 2,7 C 6,0 C
09.03.2012 21:02 7,6 C 71 % 1034,1 hPa 0,0 l/m 11,5 km/h (2 Bft) SW 225 2,7 C 5,5 C
09.03.2012 21:07 7,6 C 71 % 1034,1 hPa 0,0 l/m 14,8 km/h (3 Bft) S-SW 202 2,7 C 5,0 C
09.03.2012 21:12 7,6 C 71 % 1034,1 hPa 0,0 l/m 6,1 km/h (2 Bft) SW 225 2,7 C 6,7 C
09.03.2012 21:17 7,6 C 71 % 1034,1 hPa 0,0 l/m 6,8 km/h (2 Bft) SW 225 2,7 C 6,5 C
09.03.2012 21:22 7,6 C 71 % 1034,2 hPa 0,0 l/m 12,6 km/h (3 Bft) S-SW 202 2,7 C 5,3 C
09.03.2012 21:27 7,6 C 71 % 1034,0 hPa 0,0 l/m 6,8 km/h (2 Bft) SW 225 2,7 C 6,5 C
09.03.2012 21:32 7,6 C 71 % 1034,0 hPa 0,0 l/m 13,7 km/h (3 Bft) S-SW 202 2,7 C 5,1 C
09.03.2012 21:37 7,6 C 71 % 1034,0 hPa 0,0 l/m 8,3 km/h (2 Bft) S-SW 202 2,7 C 6,1 C
09.03.2012 21:42 7,6 C 71 % 1034,0 hPa 0,0 l/m 9,0 km/h (2 Bft) S-SW 202 2,7 C 6,0 C
09.03.2012 21:47 7,5 C 71 % 1034,0 hPa 0,0 l/m 14,4 km/h (3 Bft) SW 225 2,6 C 4,9 C
09.03.2012 21:52 7,5 C 71 % 1033,8 hPa 0,0 l/m 4,0 km/h (1 Bft) S-SW 202 2,6 C 7,5 C
09.03.2012 21:57 7,4 C 71 % 1033,7 hPa 0,0 l/m 4,7 km/h (1 Bft) S-SW 202 2,5 C 6,9 C
09.03.2012 22:02 7,4 C 71 % 1033,7 hPa 0,0 l/m 13,0 km/h (3 Bft) S-SW 202 2,5 C 5,0 C
09.03.2012 22:07 7,4 C 71 % 1033,9 hPa 0,0 l/m 6,5 km/h (2 Bft) S-SW 202 2,5 C 6,3 C
09.03.2012 22:12 7,3 C 71 % 1033,7 hPa 0,0 l/m 4,0 km/h (1 Bft) SW 225 2,4 C 7,3 C
09.03.2012 22:17 7,3 C 71 % 1033,7 hPa 0,0 l/m 11,5 km/h (2 Bft) S-SW 202 2,4 C 5,1 C
09.03.2012 22:22 7,3 C 71 % 1033,6 hPa 0,0 l/m 4,3 km/h (1 Bft) S-SO 157 2,4 C 7,3 C
09.03.2012 22:27 7,4 C 71 % 1033,7 hPa 0,0 l/m 8,6 km/h (2 Bft) W-SW 247 2,5 C 5,8 C
09.03.2012 22:32 7,4 C 71 % 1033,6 hPa 0,0 l/m 9,4 km/h (2 Bft) SW 225 2,5 C 5,6 C
09.03.2012 22:37 7,4 C 71 % 1033,5 hPa 0,0 l/m 6,8 km/h (2 Bft) SW 225 2,5 C 6,3 C
09.03.2012 22:42 7,5 C 71 % 1033,7 hPa 0,0 l/m 10,8 km/h (2 Bft) W-SW 247 2,6 C 5,5 C
09.03.2012 22:47 7,5 C 71 % 1033,7 hPa 0,0 l/m 6,1 km/h (2 Bft) S-SW 202 2,6 C 6,6 C
09.03.2012 22:52 7,5 C 71 % 1033,7 hPa 0,0 l/m 6,8 km/h (2 Bft) S-SW 202 2,6 C 6,4 C
09.03.2012 22:57 7,5 C 71 % 1033,6 hPa 0,0 l/m 11,2 km/h (2 Bft) S-SW 202 2,6 C 5,4 C
09.03.2012 23:02 7,5 C 71 % 1033,6 hPa 0,0 l/m 6,1 km/h (2 Bft) SW 225 2,6 C 6,6 C
09.03.2012 23:07 7,5 C 71 % 1033,5 hPa 0,0 l/m 8,6 km/h (2 Bft) S-SW 202 2,6 C 5,9 C
09.03.2012 23:12 7,5 C 72 % 1033,5 hPa 0,0 l/m 10,8 km/h (2 Bft) SW 225 2,8 C 5,5 C
09.03.2012 23:17 7,5 C 72 % 1033,5 hPa 0,0 l/m 9,7 km/h (2 Bft) SW 225 2,8 C 5,7 C
09.03.2012 23:22 7,4 C 72 % 1033,6 hPa 0,0 l/m 9,7 km/h (2 Bft) W 270 2,7 C 5,6 C
09.03.2012 23:27 7,4 C 72 % 1033,6 hPa 0,0 l/m 6,1 km/h (2 Bft) W 270 2,7 C 6,5 C
09.03.2012 23:32 7,4 C 72 % 1033,5 hPa 0,0 l/m 4,0 km/h (1 Bft) W 270 2,7 C 7,4 C
09.03.2012 23:37 7,4 C 72 % 1033,3 hPa 0,0 l/m 7,9 km/h (2 Bft) W-SW 247 2,7 C 6,0 C
09.03.2012 23:42 7,4 C 73 % 1033,3 hPa 0,0 l/m 5,0 km/h (1 Bft) S-SW 202 2,9 C 6,8 C
09.03.2012 23:47 7,4 C 73 % 1033,2 hPa 0,0 l/m 8,6 km/h (2 Bft) S-SW 202 2,9 C 5,8 C
09.03.2012 23:52 7,3 C 73 % 1033,1 hPa 0,0 l/m 9,4 km/h (2 Bft) S-SW 202 2,8 C 5,5 C
09.03.2012 23:57 7,3 C 73 % 1033,2 hPa 0,0 l/m 9,4 km/h (2 Bft) S 180 2,8 C 5,5 C
_ Min-Zeit 06:27 14:37 23:52 - 00:47 - - 06:27 06:57
Minimum _ 1,0 C 62 % 1033,1 hPa - 0,0 km/h (0 Bft) - - -1,1 C -2,3 C
_ Max-Zeit 14:22 07:57 09:47 00:02 14:52 - - 12:32 15:57
Maximum _ 9,8 C 88 % 1037,0 hPa 0,0 l/m 25,6 km/h
W-SW (4 Bft)
- - 3,6 C 9,4 C
Durchschnitt _ 5,5 C 76 % 1035,0 hPa #0,0 l/m 7,7 km/h (2 Bft) W-SW - 1,5 C 4,3 C
(c) by David Heller